Flag for Germany Weather past 2 weeks in Rottenburg am Neckar, Baden-Württemberg, Germany

Now
61 °F

Fog.


Feels Like: 61 °F
Forecast: 55 / 78 °F
Wind: No wind

Location: Stuttgart-Echterdingen

Current Time: Jul 23, 2014 at 8:01:29 AM

Latest Report: Jul 23, 2014 at 6:00 AM


Visibility: 0 mi

Pressure: 30.01 "Hg

Humidity: 100%

Dew point: 61 °F

Location of Rottenburg am NeckarLocation

Historic Weather in Rottenburg am Neckar — Graph

°F

Rottenburg am Neckar temperature yesterday

Maximum temperature yesterday: 74 °F (at 5:00 PM)
Minimum temperature yesterday: 64 °F (at 4:00 AM)
Average temperature yesterday: 67 °F

Past Weeks' High & Low Weather Summary

 TemperatureHumidityPressure
High91 °F (Jul 19, 4:00 PM)100% (Jul 23, 6:00 AM)30.20 "Hg (Jul 23, 6:00 AM)
Low52 °F (Jul 10, 12:00 AM)25% (Jul 18, 3:00 PM)29.77 "Hg (Jul 10, 6:00 AM)
Average67 °F75%29.95 "Hg
* Reported Jul 8 6:00 AM — Jul 23 6:00 AM, Rottenburg am Neckar, Weather by CustomWeather, © 2014

Note: Actual official high and low records may vary slightly from our data, if they occured in-between our weather recording intervals... More about our weather records

Advertising

Rottenburg am Neckar weather history for previous 24 hours

 ConditionsComfort  
Time TempWeatherWind HumidityBarometerVisibility
6:00 AM
Jul 23
61 °FFog.No wind100%30.01 "Hg0 mi
5:00 AM61 °FFog.No wind99%30.01 "Hg0 mi
4:00 AM61 °FFog.No wind99%30.01 "Hg0 mi
3:00 AM60 °FFog.No wind99%30.01 "Hg0 mi
2:00 AM61 °FFog.No wind98%30.01 "Hg1 mi
7:00 PM
Jul 22
69 °FThunderstorms. Low clouds.2 mph91%29.94 "Hg12 mi
6:00 PM69 °FThundershowers. Overcast.3 mph92%29.95 "Hg1 mi
5:00 PM74 °FThunderstorms. Overcast.5 mph76%29.91 "Hg10 mi
4:00 PM73 °FSprinkles. Overcast.3 mph78%29.92 "Hg40 mi
3:00 PM72 °FOvercast.5 mph83%29.92 "Hg9 mi
2:00 PM69 °FSprinkles. Low clouds.3 mph96%29.93 "Hg4 mi
1:00 PM68 °FSprinkles. Low clouds.3 mph95%29.92 "Hg4 mi
12:00 PM68 °FSprinkles. Low clouds.3 mph93%29.91 "Hg5 mi
10:00 AM66 °FLight rain. Overcast.5 mph96%29.89 "Hg4 mi
9:00 AM65 °FLight rain. Overcast.5 mph96%29.88 "Hg4 mi
8:00 AM65 °FRain. Low clouds.5 mph97%29.86 "Hg2 mi
Weather by CustomWeather, © 2014

See weather overviewHow to use our weather pages